Regional Weather Roundup
Issued by NWS

Home | Current Version | Previous Version | Graphics & Text | Print | Product List | Glossary On
Versions: 1 2 3 4 5 6 7 8 9 10 11 12 13 14 15 16 17 18 19 20 21 22 23 24 25 26 27 28 29 30 31 32 33 34 35 36 37 38 39 40 41 42 43 44 45 46 47 48 49 50
000
ASUS44 KMEG 211910
RWRTN
TENNESSEE HOURLY STATE WEATHER ROUNDUP
NATIONAL WEATHER SERVICE MEMPHIS TN
100 PM CST WED FEB 21 2018

TNZ002-004-019-021-049-052-054-088>092-212000-
WEST TENNESSEE

CITY           SKY/WX    TMP DP  RH WIND       PRES   REMARKS
MEMPHIS INTL   RAIN      48  46  93 NE9       30.34F FOG
NWS MEMPHIS      N/A     47 N/A N/A MISG        N/A
JACKSON        CLOUDY    49  48  97 N9        30.35S
DYERSBURG      RAIN      42  41  96 N9        30.39S
SOMERVILLE     CLOUDY    48  48 100 VRB6G14   30.32S
COVINGTON      PTSUNNY   45  45 100 N13       30.40R FOG
UNION CITY     MOSUNNY   43  41  93 N12       30.40S FOG
BOLIVAR        CLOUDY    52  50  93 N6        30.32S FOG
PARIS          PTSUNNY   43  43 100 N9        30.37R FOG
LEXINGTON      CLOUDY    54  52  94 NE8       30.32F
SAVANNAH       CLOUDY    59  57  94 N8        30.30S
$$

TNZ008-025-027-028-033-062-065-066-212000-
NORTH MIDDLE TENNESSEE

CITY           SKY/WX    TMP DP  RH WIND       PRES   REMARKS
NASHVILLE      LGT RAIN  57  54  89 N12       30.34S FOG
PORTLAND       CLOUDY    50  50 100 N9        30.35S FOG
CLARKSVILLE    CLOUDY    48  43  82 N8        30.37F
SMYRNA         LGT RAIN  58  56  93 NW13      30.33F
COOKEVILLE     PTSUNNY   77  61  57 SW17      30.27F
GALLATIN       CLOUDY    57  55  94 NW10      30.35S
CROSSVILLE     CLOUDY    71  60  68 S10G18    30.33F
$$

TNZ061-075-076-078-094-096-097-212000-
SOUTH MIDDLE TENNESSEE

CITY           SKY/WX    TMP DP  RH WIND       PRES   REMARKS
FAYETTEVILLE   PTSUNNY   75  64  69 SW10G23   30.27F
TULLAHOMA      PTSUNNY   77  63  61 S12G21    30.26F
WINCHESTER     PTSUNNY   77  63  61 S13       30.28F
MCMINNVILLE    PTSUNNY   77  63  61 S9G20     30.27F
COLUMBIA       CLOUDY    59  59 100 N7        30.31F
SHELBYVILLE    PTSUNNY   66  59  77 N18G24    30.28R
$$

TNZ017-018-042-046-047-212000-
NORTHEAST TENNESSEE

CITY           SKY/WX    TMP DP  RH WIND       PRES   REMARKS
TRI CITIES     FAIR      80  58  46 SW12G17   30.33F
ELIZABETHTON   FAIR      77  57  50 SE5       30.34F
$$

TNZ012-013-036-069-073-074-212000-
CENTRAL EAST TENNESSEE

CITY           SKY/WX    TMP DP  RH WIND       PRES   REMARKS
KNOXVILLE      PTSUNNY   73  68  84 W12       30.30F
OAK RIDGE      CLOUDY    77  64  64 VRB7G20   30.31F
DOWNTOWN KNOXV MOSUNNY   75  64  69 SW10G20   30.31F
GATLINBURG     SUNNY     82  57  42 SW12G18   30.29F
MORRISTOWN     PTSUNNY   81  61  50 W8G17     30.31F
JACKSBORO      CLOUDY    72  63  73 VRB3      30.35F
$$

TNZ083-085-099-212000-
SOUTHEAST TENNESSEE

CITY           SKY/WX    TMP DP  RH WIND       PRES   REMARKS
CHATTANOOGA    PTSUNNY   77  62  59 S12       30.31F
$$

SKY/WX REPORTED AS FAIR MEANS FEW OR NO CLOUDS BELOW
12 THOUSAND FEET.





USA.gov is the U.S. government's official web portal to all federal, state and local government web resources and services.